KC9CW-13 Weather Reports


time (UTC)temp
C
wind
direction
speed
KPH
gust
KPH
rain 1hr
cm
rain 24hr
cm
rain mn
cm
humidity
%
barometer
mb
20260504082003 14 163 1.6 22.5 0.08 0.08 0.08 68 1009.7
20260504081529 13 151 1.6 12.9 0.08 0.08 0.08 68 1009.6
20260504081007 13 204 3.2 12.9 0.08 0.08 0.08 69 1009.9
20260504080509 13 206 4.8 16.1 0.08 0.08 0.08 68 1010.0
20260504050512 15 178 8.0 14.5 0.00 0.00 0.00 60 1010.7
20260504050014 15 186 6.4 16.1 0.00 0.00 0.00 59 1010.7
20260504045507 15 217 8.0 16.1 0.00 0.00 0.00 59 1010.7
20260504045006 15 204 6.4 16.1 0.00 0.00 0.00 59 1010.7
20260504044516 15 188 6.4 12.9 0.00 0.00 0.00 58 1010.7
20260504044008 15 190 4.8 12.9 0.00 0.00 0.00 58 1010.8
20260504043508 15 209 4.8 16.1 0.00 0.00 0.00 57 1010.8
20260504043022 15 207 8.0 17.7 0.00 0.00 0.00 57 1010.7
20260504042508 15 196 8.0 17.7 0.00 0.00 0.00 57 1010.6
20260504042011 15 186 9.7 16.1 0.00 0.00 0.00 57 1010.8
20260504041523 15 206 8.0 16.1 0.00 0.00 0.00 57 1010.9
20260504041010 15 207 6.4 12.9 0.00 0.00 0.00 57 1010.9
20260504040508 15 190 6.4 14.5 0.00 0.00 0.00 57 1011.0
20260504040031 15 189 6.4 14.5 0.00 0.00 0.00 57 1011.0
20260504035507 15 183 8.0 14.5 0.00 0.00 0.00 57 1011.0
20260504035007 15 180 6.4 14.5 0.00 0.00 0.00 57 1010.9
20260504034528 15 175 6.4 14.5 0.00 0.00 0.00 58 1010.9
20260504034008 15 153 6.4 17.7 0.00 0.00 0.00 58 1010.9
20260504033507 15 171 8.0 19.3 0.00 0.00 0.00 58 1010.9
20260504033027 15 177 8.0 19.3 0.00 0.00 0.00 57 1011.0
20260504032513 15 165 6.4 14.5 0.00 0.00 0.00 57 1011.2
20260504032010 15 187 6.4 16.1 0.00 0.00 0.00 56 1011.3
20260504031524 15 159 8.0 14.5 0.00 0.00 0.00 55 1011.3
20260504031011 15 152 4.8 19.3 0.00 0.00 0.00 55 1011.2
20260504030509 15 198 8.0 19.3 0.00 0.00 0.00 54 1011.2
20260504030035 16 158 8.0 17.7 0.00 0.00 0.00 53 1011.4
20260504025512 16 205 8.0 17.7 0.00 0.00 0.00 52 1011.4
20260504025011 16 171 6.4 16.1 0.00 0.00 0.00 52 1011.4
20260504024528 16 215 6.4 12.9 0.00 0.00 0.00 52 1011.4
20260504024004 16 187 6.4 11.3 0.00 0.00 0.00 52 1011.6
20260504023508 16 234 4.8 11.3 0.00 0.00 0.00 52 1011.6
20260504023018 16 152 6.4 16.1 0.00 0.00 0.00 53 1011.5
20260504022508 16 155 4.8 17.7 0.00 0.00 0.00 52 1011.3
20260504022008 16 198 6.4 19.3 0.00 0.00 0.00 52 1011.1
20260504021524 16 173 9.7 19.3 0.00 0.00 0.00 53 1011.1
20260504021008 16 172 6.4 19.3 0.00 0.00 0.00 53 1011.1
20260504020510 16 183 9.7 19.3 0.00 0.00 0.00 53 1011.0
20260504020022 15 193 6.4 17.7 0.00 0.00 0.00 53 1010.9
20260504015509 15 208 6.4 17.7 0.00 0.00 0.00 54 1011.0
20260504015010 15 162 6.4 14.5 0.00 0.00 0.00 54 1011.1
20260504014526 15 206 4.8 14.5 0.00 0.00 0.00 53 1011.0
20260504014009 16 206 6.4 14.5 0.00 0.00 0.00 53 1011.1
20260504013508 16 181 6.4 14.5 0.00 0.00 0.00 52 1011.1
20260504013017 16 165 6.4 14.5 0.00 0.00 0.00 52 1011.1
20260504012505 16 207 6.4 14.5 0.00 0.00 0.00 52 1011.2
20260504012008 16 170 4.8 14.5 0.00 0.00 0.00 52 1011.2
20260504011522 16 150 4.8 12.9 0.00 0.00 0.00 52 1011.3
20260504011008 16 194 6.4 12.9 0.00 0.00 0.00 52 1011.3
20260504010509 16 175 6.4 11.3 0.00 0.00 0.00 52 1011.3
20260504010025 16 167 4.8 11.3 0.00 0.00 0.00 51 1011.3
20260504005503 16 233 4.8 11.3 0.00 0.00 0.00 51 1011.4
20260504005004 16 184 6.4 14.5 0.00 0.00 0.00 50 1011.4
20260504004508 17 161 4.8 14.5 0.00 0.00 0.00 50 1011.4
20260504004006 17 223 6.4 11.3 0.00 0.00 0.00 50 1011.5
20260504003508 17 188 6.4 11.3 0.00 0.00 0.00 50 1011.6
20260504003012 17 200 4.8 12.9 0.00 0.00 0.00 49 1011.6
20260504002505 17 198 6.4 12.9 0.00 0.00 0.00 48 1011.7
20260504002009 17 187 4.8 12.9 0.00 0.00 0.00 48 1011.8
20260504001516 17 203 4.8 11.3 0.00 0.00 0.00 47 1011.8
20260504001009 17 191 4.8 11.3 0.00 0.00 0.00 47 1011.9
20260504000510 17 177 4.8 17.7 0.00 0.00 0.00 46 1011.8
20260504000005 17 254 6.4 17.7 0.00 0.00 0.00 46 1011.9
20260503235504 17 217 6.4 17.7 0.00 0.00 0.00 46 1011.9
20260503235004 17 194 4.8 19.3 0.00 0.00 0.00 45 1011.9
20260503234511 17 202 8.0 19.3 0.00 0.00 0.00 45 1011.9
20260503234005 17 177 9.7 19.3 0.00 0.00 0.00 45 1011.9
20260503233504 18 161 8.0 20.9 0.00 0.00 0.00 44 1011.9
20260503233012 18 196 6.4 24.1 0.00 0.00 0.00 44 1011.8
20260503232505 18 204 8.0 24.1 0.00 0.00 0.00 43 1011.8
20260503232005 18 196 12.9 24.1 0.00 0.00 0.00 43 1011.7
20260503231519 18 184 12.9 24.1 0.00 0.00 0.00 43 1011.6
20260503231007 18 170 9.7 24.1 0.00 0.00 0.00 44 1011.6
20260503230508 18 190 9.7 27.4 0.00 0.00 0.00 44 1011.6
20260503230020 18 164 9.7 27.4 0.00 0.00 0.00 44 1011.6
20260503225509 18 202 8.0 30.6 0.00 0.00 0.00 44 1011.6
20260503225009 18 196 11.3 33.8 0.00 0.00 0.00 45 1011.7
20260503224504 18 171 14.5 33.8 0.00 0.00 0.00 44 1011.7
20260503224004 18 165 8.0 27.4 0.00 0.00 0.00 44 1011.8
20260503223503 18 225 11.3 27.4 0.00 0.00 0.00 45 1011.9
20260503223020 18 183 14.5 27.4 0.00 0.00 0.00 44 1011.7
20260503222504 18 201 14.5 30.6 0.00 0.00 0.00 43 1011.7
20260503222008 18 168 14.5 30.6 0.00 0.00 0.00 43 1011.8
20260503221516 18 178 11.3 27.4 0.00 0.00 0.00 44 1011.7
20260503221010 18 208 9.7 30.6 0.00 0.00 0.00 42 1011.7
20260503220509 18 194 16.1 33.8 0.00 0.00 0.00 44 1011.8
20260503220023 18 212 11.3 35.4 0.00 0.00 0.00 44 1011.9
20260503215508 18 173 20.9 35.4 0.00 0.00 0.00 44 1012.0
20260503215011 18 189 16.1 32.2 0.00 0.00 0.00 44 1012.0
20260503214522 18 192 14.5 32.2 0.00 0.00 0.00 46 1012.2
20260503214004 18 130 9.7 27.4 0.00 0.00 0.00 45 1012.1
20260503213506 18 200 14.5 27.4 0.00 0.00 0.00 44 1012.2
20260503213009 18 170 9.7 25.7 0.00 0.00 0.00 45 1012.4
20260503212504 18 157 16.1 25.7 0.00 0.00 0.00 43 1012.5
20260503212007 18 227 9.7 30.6 0.00 0.00 0.00 45 1012.7
20260503211518 18 168 12.9 32.2 0.00 0.00 0.00 44 1012.7
20260503211005 18 185 12.9 32.2 0.00 0.00 0.00 43 1012.8
20260503210509 18 189 17.7 30.6 0.00 0.00 0.00 43 1012.9
20260503210018 18 188 8.0 32.2 0.00 0.00 0.00 44 1013.1
20260503205512 18 109 11.3 41.8 0.00 0.00 0.00 42 1013.3
20260503205010 18 168 14.5 38.6 0.00 0.00 0.00 43 1013.5
20260503204533 18 196 8.0 17.7 0.00 0.00 0.00 43 1013.7
20260503204011 18 230 6.4 38.6 0.00 0.00 0.00 42 1013.8
20260503203507 18 205 16.1 38.6 0.00 0.00 0.00 45 1014.1
20260503203014 18 213 9.7 19.3 0.00 0.00 0.00 45 1014.3
20260503202503 18 174 8.0 27.4 0.00 0.00 0.00 42 1014.6
20260503202008 18 212 8.0 27.4 0.00 0.00 0.00 44 1014.7
20260503201512 18 180 11.3 27.4 0.00 0.00 0.00 44 1014.8
20260503201007 18 152 12.9 24.1 0.00 0.00 0.00 44 1015.0
20260503200509 18 200 8.0 27.4 0.00 0.00 0.00 44 1015.1
20260503200014 18 163 12.9 27.4 0.00 0.00 0.00 43 1015.1
20260503195509 18 202 9.7 20.9 0.00 0.00 0.00 45 1015.1
20260503195010 18 327 6.4 25.7 0.00 0.00 0.00 42 1015.1
20260503194524 18 217 6.4 30.6 0.00 0.00 0.00 42 1015.1
20260503194010 18 148 16.1 30.6 0.00 0.00 0.00 45 1015.3
20260503193510 18 145 11.3 25.7 0.00 0.00 0.00 45 1015.3
20260503193024 17 205 14.5 25.7 0.00 0.00 0.00 45 1015.4
20260503192507 17 191 11.3 22.5 0.00 0.00 0.00 45 1015.4
20260503192003 18 196 11.3 33.8 0.00 0.00 0.00 41 1015.4
20260503191508 17 201 12.9 33.8 0.00 0.00 0.00 41 1015.7
20260503191008 17 232 12.9 24.1 0.00 0.00 0.00 45 1015.7
20260503190505 17 209 9.7 38.6 0.00 0.00 0.00 45 1015.9
20260503190015 17 152 14.5 38.6 0.00 0.00 0.00 43 1015.9
20260503185509 17 147 11.3 25.7 0.00 0.00 0.00 45 1015.9
20260503185006 17 194 9.7 25.7 0.00 0.00 0.00 46 1016.1
20260503184519 17 181 9.7 24.1 0.00 0.00 0.00 45 1016.1
20260503184010 17 163 11.3 27.4 0.00 0.00 0.00 46 1016.3
20260503183509 17 169 12.9 27.4 0.00 0.00 0.00 47 1016.5
20260503183026 17 210 12.9 24.1 0.00 0.00 0.00 46 1016.8
20260503182512 17 229 12.9 22.5 0.00 0.00 0.00 46 1016.9
20260503182009 17 153 8.0 22.5 0.00 0.00 0.00 49 1017.0
20260503181524 17 178 4.8 22.5 0.00 0.00 0.00 49 1017.2
20260503181004 17 169 12.9 27.4 0.00 0.00 0.00 46 1017.3
20260503180507 17 203 9.7 29.0 0.00 0.00 0.00 47 1017.3
20260503180025 17 203 8.0 29.0 0.00 0.00 0.00 48 1017.6
20260503175509 16 216 8.0 25.7 0.00 0.00 0.00 49 1017.6
20260503175008 16 207 12.9 25.7 0.00 0.00 0.00 50 1017.7
20260503174521 16 158 8.0 27.4 0.00 0.00 0.00 48 1017.7
20260503174007 16 223 16.1 27.4 0.00 0.00 0.00 48 1017.7
20260503173507 16 175 12.9 25.7 0.00 0.00 0.00 49 1017.8
20260503173022 16 198 8.0 24.1 0.00 0.00 0.00 50 1018.0
20260503172509 16 185 11.3 20.9 0.00 0.00 0.00 49 1018.2
20260503172012 16 217 6.4 29.0 0.00 0.00 0.00 47 1018.3
20260503171529 16 187 8.0 29.0 0.00 0.00 0.00 50 1018.3
20260503171011 16 174 12.9 24.1 0.00 0.00 0.00 48 1018.4
20260503170511 16 198 11.3 22.5 0.00 0.00 0.00 48 1018.6
20260503151010 14 200 8.0 22.5 0.00 0.00 0.00 55 1019.4
20260503150506 13 215 11.3 22.5 0.00 0.00 0.00 54 1019.5
20260503131010 9 184 4.8 12.9 0.00 0.03 0.00 1019.7
20260503130511 9 221 4.8 12.9 0.00 0.03 0.00 69 1019.8
20260503110514 4 141 0.0 3.2 0.00 0.03 0.00 78 1019.3